Location: Lugrin
(46.4033°N, 6.6674°E)
Time: 06:27:49
(UTC+00:00)

OBJECT-B - Pass Details

Date: 18 September 2020
Orbit: 421 x 433 km, 97.0° (Epoch: 09 October)

Event Time Altitude Azimuth Distance (km) Brightness Sun altitude
Exits shadow 19:01:25 26° 71° (ENE) 873 1.9 -14.9°
Maximum altitude 19:01:27 26° 70° (ENE) 873 1.9 -14.9°
Drops below altitude 10° 19:04:13 10° 12° (NNE) 1,521 3.7 -15.4°
Sets 19:06:26 0° 359° (N) 2,394 4.9 -15.7°
